BANDUNG Weather Reports


time (UTC)temp
C
wind
direction
speed
KPH
gust
KPH
rain 1hr
cm
rain 24hr
cm
rain mn
cm
humidity
%
barometer
mb
20260502221126 29 0.0 0.0 0.00 0.00 0.00 52 1012.6
20260502220126 29 0.0 0.0 0.00 0.00 0.00 52 1012.6
20260502215126 29 0.0 0.0 0.00 0.00 0.00 52 1012.7
20260502214126 30 0.0 0.0 0.00 0.00 0.00 52 1012.8
20260502213126 30 0.0 0.0 0.00 0.00 0.00 51 1012.7
20260502212126 30 0.0 0.0 0.00 0.00 0.00 51 1012.8
20260502211126 30 0.0 0.0 0.00 0.00 0.00 50 1012.7
20260502210125 30 0.0 0.0 0.00 0.00 0.00 50 1012.7
20260502205126 30 0.0 0.0 0.00 0.00 0.00 50 1012.7
20260502204126 30 0.0 0.0 0.00 0.00 0.00 50 1012.8
20260502203126 30 0.0 0.0 0.00 0.00 0.00 50 1012.8
20260502202126 30 0.0 0.0 0.00 0.00 0.00 49 1012.8
20260502201126 30 0.0 0.0 0.00 0.00 0.00 49 1012.8
20260502200125 30 0.0 0.0 0.00 0.00 0.00 49 1012.9
20260502195125 30 0.0 0.0 0.00 0.00 0.00 48 1012.8
20260502194125 30 0.0 0.0 0.00 0.00 0.00 49 1012.8
20260502193125 30 0.0 0.0 0.00 0.00 0.00 49 1012.8
20260502192125 30 0.0 0.0 0.00 0.00 0.00 49 1012.8
20260502191125 30 0.0 0.0 0.00 0.00 0.00 49 1012.9
20260502190125 30 0.0 0.0 0.00 0.00 0.00 50 1013.1
20260502185125 30 0.0 0.0 0.00 0.00 0.00 50 1013.1
20260502184125 30 0.0 0.0 0.00 0.00 0.00 50 1013.2
20260502183125 30 0.0 0.0 0.00 0.00 0.00 50 1013.2
20260502182125 30 0.0 0.0 0.00 0.00 0.00 49 1013.3
20260502181125 30 0.0 0.0 0.00 0.00 0.00 49 1013.3
20260502180125 30 0.0 0.0 0.00 0.00 0.00 49 1013.3
20260502170125 31 0.0 0.0 0.00 0.00 0.00 49 1013.8
20260502164125 31 0.0 0.0 0.00 0.00 0.00 49 1013.9
20260502163125 31 0.0 0.0 0.00 0.00 0.00 49 1014.0
20260502162125 31 0.0 0.0 0.00 0.00 0.00 49 1014.0
20260502161125 31 0.0 0.0 0.00 0.00 0.00 50 1014.0
20260502160125 31 0.0 0.0 0.00 0.00 0.00 50 1014.1
20260502152125 31 0.0 0.0 0.00 0.00 0.00 50 1014.4
20260502151125 31 0.0 0.0 0.00 0.00 0.00 50 1014.4
20260502150125 31 0.0 0.0 0.00 0.00 0.00 50 1014.4
20260502140125 31 0.0 0.0 0.00 0.00 0.00 50 1014.1
20260502130125 32 0.0 0.0 0.00 0.00 0.00 47 1013.3
20260502123125 32 0.0 0.0 0.00 0.00 0.00 47 1013.5
20260502122126 32 0.0 0.0 0.00 0.00 0.00 47 1013.3
20260502121125 32 0.0 0.0 0.00 0.00 0.00 47 1013.1
20260502120125 31 0.0 0.0 0.00 0.00 0.00 47 1012.8
20260502115125 31 0.0 0.0 0.00 0.00 0.00 48 1012.7
20260502114125 31 0.0 0.0 0.00 0.00 0.00 48 1012.5
20260502113125 32 0.0 0.0 0.00 0.00 0.00 48 1012.4
20260502112125 32 0.0 0.0 0.00 0.00 0.00 48 1012.3
20260502111125 32 0.0 0.0 0.00 0.00 0.00 48 1012.2
20260502110125 32 0.0 0.0 0.00 0.00 0.00 48 1011.8
20260502105125 32 0.0 0.0 0.00 0.00 0.00 48 1011.5
20260502104125 32 0.0 0.0 0.00 0.00 0.00 48 1011.5
20260502103125 32 0.0 0.0 0.00 0.00 0.00 48 1011.4
20260502102125 33 0.0 0.0 0.00 0.00 0.00 48 1011.4
20260502101125 33 0.0 0.0 0.00 0.00 0.00 48 1011.5
20260502100124 33 0.0 0.0 0.00 0.00 0.00 47 1011.4
20260502091124 33 0.0 0.0 0.00 0.00 0.00 47 1010.6
20260502090124 34 0.0 0.0 0.00 0.00 0.00 46 1010.6
20260502071124 40 0.0 0.0 0.00 0.00 0.00 30 1011.2
20260502070124 40 0.0 0.0 0.00 0.00 0.00 29 1011.3
20260502065124 39 0.0 0.0 0.00 0.00 0.00 30 1011.4
20260502064124 39 0.0 0.0 0.00 0.00 0.00 30 1011.5
20260502063124 39 0.0 0.0 0.00 0.00 0.00 30 1011.8
20260502062124 38 0.0 0.0 0.00 0.00 0.00 31 1012.1
20260502061124 38 0.0 0.0 0.00 0.00 0.00 32 1012.2
20260502060124 38 0.0 0.0 0.00 0.00 0.00 30 1012.3
20260502055124 37 0.0 0.0 0.00 0.00 0.00 30 1012.6
20260502054124 37 0.0 0.0 0.00 0.00 0.00 30 1012.7
20260502053124 37 0.0 0.0 0.00 0.00 0.00 29 1012.9
20260502052124 38 0.0 0.0 0.00 0.00 0.00 29 1013.2
20260502051124 37 0.0 0.0 0.00 0.00 0.00 29 1013.3
20260502050124 37 0.0 0.0 0.00 0.00 0.00 29 1013.5
20260502045124 37 0.0 0.0 0.00 0.00 0.00 29 1013.7
20260502044124 37 0.0 0.0 0.00 0.00 0.00 29 1013.7
20260502043124 37 0.0 0.0 0.00 0.00 0.00 29 1013.8
20260502042116 37 0.0 0.0 0.00 0.00 0.00 28 1014.0
20260502041115 37 0.0 0.0 0.00 0.00 0.00 28 1014.2
20260502040116 37 0.0 0.0 0.00 0.00 0.00 28 1014.4
20260502035116 37 0.0 0.0 0.00 0.00 0.00 28 1014.5
20260502034116 36 0.0 0.0 0.00 0.00 0.00 29 1014.6
20260502033116 36 0.0 0.0 0.00 0.00 0.00 29 1014.7
20260502032116 36 0.0 0.0 0.00 0.00 0.00 28 1014.9
20260502031116 36 0.0 0.0 0.00 0.00 0.00 28 1014.9
20260502030116 35 0.0 0.0 0.00 0.00 0.00 30 1014.9
20260502025115 35 0.0 0.0 0.00 0.00 0.00 32 1015.0
20260502024115 34 0.0 0.0 0.00 0.00 0.00 33 1014.9
20260502023115 33 0.0 0.0 0.00 0.00 0.00 34 1015.0
20260502022116 33 0.0 0.0 0.00 0.00 0.00 35 1014.9
20260502021115 33 0.0 0.0 0.00 0.00 0.00 36 1015.0
20260502020115 33 0.0 0.0 0.00 0.00 0.00 36 1015.0
20260502015115 33 0.0 0.0 0.00 0.00 0.00 37 1014.9
20260502014115 33 0.0 0.0 0.00 0.00 0.00 39 1014.9
20260502013115 32 0.0 0.0 0.00 0.00 0.00 40 1014.8
20260502012115 32 0.0 0.0 0.00 0.00 0.00 42 1014.6
20260502011115 32 0.0 0.0 0.00 0.00 0.00 43 1014.5
20260502010115 31 0.0 0.0 0.00 0.00 0.00 44 1014.4
20260502005115 31 0.0 0.0 0.00 0.00 0.00 46 1014.4
20260502004115 30 0.0 0.0 0.00 0.00 0.00 48 1014.2
20260502003115 29 0.0 0.0 0.00 0.00 0.00 49 1014.1
20260502002115 29 0.0 0.0 0.00 0.00 0.00 49 1014.1
20260502001115 29 0.0 0.0 0.00 0.00 0.00 50 1014.0
20260502000115 28 0.0 0.0 0.00 0.00 0.00 50 1013.9
20260501235115 28 0.0 0.0 0.00 0.00 0.00 50 1013.9
20260501234115 28 0.0 0.0 0.00 0.00 0.00 50 1013.7
20260501233115 28 0.0 0.0 0.00 0.00 0.00 50 1013.7
20260501232115 28 0.0 0.0 0.00 0.00 0.00 51 1013.6
20260501231115 28 0.0 0.0 0.00 0.00 0.00 51 1013.6
20260501230115 28 0.0 0.0 0.00 0.00 0.00 52 1013.4
20260501225115 28 0.0 0.0 0.00 0.00 0.00 51 1013.3
20260501224115 28 0.0 0.0 0.00 0.00 0.00 51 1013.4
20260501223115 28 0.0 0.0 0.00 0.00 0.00 51 1013.3
20260501222115 28 0.0 0.0 0.00 0.00 0.00 51 1013.1